Location: UBC Liquid-Mirror Observatory
(49.2876°N, 122.5728°W)
Time: 00:02:05
(UTC-07:00)

KITSAT 1 - Visible Passes

Search period start: 31 October 2014 00:00
Search period end: 09 November 2014 23:00
Orbit: 1314 x 1316 km, 66.1° (Epoch: 30 October)

Date Brightness Start Highest point End Pass type
(mag) Time Alt. Az. Time Alt. Az. Time Alt. Az.
31 Oct 10.3 19:18:12 10° NW 19:26:14 63° NE 19:33:04 15° SE visible
31 Oct 11.2 21:14:00 10° NW 21:21:22 41° WSW 21:25:07 26° SSW visible
01 Nov 10.2 19:34:19 10° NW 19:42:28 81° NE 19:49:44 14° SE visible
01 Nov 11.7 21:30:31 10° NW 21:37:06 29° WSW 21:41:48 17° SSW visible
02 Nov 10.3 18:50:29 10° NW 18:58:34 78° WSW 19:06:37 10° SSE visible
02 Nov 12.2 20:47:23 10° WNW 20:52:43 20° WSW 20:58:03 10° SW visible
03 Nov 10.5 17:11:06 10° NW 17:18:54 48° NE 17:26:39 10° ESE visible
03 Nov 10.7 19:06:41 10° NW 19:14:33 58° WSW 19:22:23 10° SSE visible
03 Nov 12.6 21:05:13 10° WNW 21:08:13 12° W 21:11:12 10° WSW visible
04 Nov 10.3 17:27:14 10° NW 17:35:15 61° NE 17:43:14 10° SE visible
04 Nov 11.3 19:23:00 10° NW 19:30:25 42° WSW 19:37:48 10° S visible
05 Nov 10.2 17:43:21 10° NW 17:51:30 79° NE 17:59:35 10° SE visible
05 Nov 11.9 19:39:30 10° NW 19:46:10 30° WSW 19:52:49 10° SSW visible
06 Nov 10.4 17:59:30 10° NW 18:07:36 80° WSW 18:15:40 10° SSE visible
06 Nov 12.4 19:56:20 10° WNW 20:01:47 20° WSW 20:07:14 10° SW visible
07 Nov 10.8 18:15:43 10° NW 18:23:36 59° WSW 18:31:27 10° SSE visible
07 Nov 12.8 20:14:02 10° WNW 20:17:17 13° W 20:20:33 10° WSW visible
08 Nov 11.4 18:32:01 10° NW 18:39:28 43° WSW 18:46:54 10° S visible
09 Nov 12.0 18:48:30 10° NW 18:55:13 30° WSW 19:01:56 10° SSW visible
